Location: Newark
(45.5167°N, 11.1667°E)
Time: 01:35:24
(UTC+00:00)

Explorer 7 - Pass Details

Date: 20 December 2019
Orbit: 485 x 679 km, 50.3° (Epoch: 22 January)

Event Time Altitude Azimuth Distance (km) Brightness Sun altitude
Rises 19:01:20 0° 282° (WNW) 3,034 11.6 -35.2°
Reaches altitude 10° 19:05:50 10° 244° (WSW) 2,103 10.4 -36.0°
Maximum altitude 19:06:47 11° 233° (SW) 2,061 10.2 -36.2°
Drops below altitude 10° 19:07:45 10° 221° (SW) 2,091 10.1 -36.3°
Enters shadow 19:07:55 10° 219° (SW) 2,104 10.1 -36.4°
Sets 19:12:10 0° 183° (S) 2,962 - -37.1°
